User: anonymous   Login
Location: Unspecified
(0.0000°N, 0.0000°E)
Time: 01:49:57
(UTC+00:00)
Language:

TBA - TO BE ASSIGNED - Orbit

View from above orbital plane
View from above orbital plane
View from above satellite
View from above satellite

Ground track
Ground track

The orbit is defined by the following mean orbital elements,

1 67446U          26145.43237669 +.00000000 +00000-0 +67389-3 0 00004
2 67446  43.0005 132.2928 0001645 266.0994  93.9670 15.27595058    01
Epoch (UTC): 25 May 2026 10:22:37
Eccentricity: 0.0001645
inclination: 43.0005°
perigee height: 482 km
apogee height: 484 km
right ascension of ascending node: 132.2928°
argument of perigee: 266.0994°
revolutions per day: 15.27595058
mean anomaly at epoch: 93.9670°

The dashed part of the orbit path shows where the satellite is in the earth's shadow,  

DLR